Back to catalog

STARLINK-36958

AliveCommunicationsSSO
NORAD 68163·PAYLOAD·🇺🇸 United States

Launched Mar 13, 2026 from Vandenberg Space Force Base

Loading…

Next Passes (next 24 hours)

TLE

FreshSource: CelesTrak SupGP

Epoch: Sep 14, 2026, 21:30 UTC

1 68163C 26049X   26257.89631944  .00035568  00000+0  11044-2 0  2576
2 68163  97.2840 277.8584 0001206  96.5507  34.6883 15.33414326    13

Track STARLINK-36958 in real time with AllMySat

Download on the App Store